Regional Weather Roundup
Issued by NWS Bismarck, ND

Current Version | Previous Version | Text Only | Print | Product List | Glossary On
Versions: 1 2 3 4 5 6 7 8 9 10 11 12 13 14 15 16 17 18 19 20 21 22 23 24 25 26 27 28 29 30 31 32 33 34 35 36 37 38 39 40 41 42 43 44 45 46 47 48 49 50
000
ASUS43 KBIS 020320
RWRBIS

NWR BROADCAST TEXT
NATIONAL WEATHER SERVICE BISMARCK ND
900 PM CST SUN MAR 01 2015

NOTE: "FAIR" INDICATES FEW OR NO CLOUDS BELOW 12,000 FEET WITH NO
SIGNIFICANT WEATHER AND/OR OBSTRUCTIONS TO VISIBILITY.


CITY           SKY/WX    TMP DP  RH WIND       PRES   REMARKS
WILLISTON      PTCLDY     5  -1  76 CALM      30.27F
MINOT          CLEAR     14   6  70 SW9       30.29S WCI   2
MINOT AFB      CLEAR      7   3  84 W10       30.28F WCI  -8
BISMARCK       CLEAR      6   2  83 VRB5      30.36S WCI  -3
DICKINSON      CLEAR      8   5  87 S7        30.26S WCI  -3
GARRISON         N/A      8   4  83 W5        30.31R WCI   0
HETTINGER ARPT CLEAR      7   1  76 CALM      30.30S
JAMESTOWN      CLEAR      9   1  70 W7        30.34S WCI  -2
BEACH          FAIR       5   1  85 S7        30.26S WCI  -7
CARRINGTON     FAIR       7   1  78 MISG      30.33R
CROSBY         FAIR       0  -2  92 S8        30.27S WCI -15
HARVEY         FAIR       3   0  85 SW10      30.32R WCI -12
HAZEN          MOCLDY     7   1  78 SE6       30.33S WCI  -3
LINTON         FAIR       7   3  85 S6        30.37R WCI  -3
MANDAN         FAIR      16   7  67 CALM      30.34S
OAKES            N/A      9   5  85 W9        30.37S WCI  -5
RUGBY          FAIR       5   1  85 W9        30.29S WCI  -9
TIOGA          FAIR      -4  -4 100 CALM      30.28F
WATFORD CITY   FAIR       7   3  85 SW5       30.26S WCI  -2
$$

CITY           SKY/WX    TMP DP  RH WIND       PRES   REMARKS
GRAND FORKS    PTCLDY    10   4  76 W8        30.32S WCI  -2
GRAND FORKS AF PTCLDY    11   5  74 W7        30.32S WCI   1
DEVILS LAKE    CLEAR      7   0  72 W10       30.30R WCI  -8
FARGO          CLEAR      9   3  77 W7        30.37R WCI  -2
CANDO          FAIR       5   1  85 W12       30.28S WCI -11
CAVALIER       FAIR      14   5  67 W9        30.30R WCI   2
GWINNER        CLEAR     12   5  73 W8        30.38S WCI   1
ROLLA          FAIR       9   5  85 W12       30.25R WCI  -6
WALHALLA         N/A     14   5  67 W13       30.29R WCI   0
$$

CITY           SKY/WX    TMP DP  RH WIND       PRES   REMARKS
ABERDEEN       CLEAR     11   5  77 W5        30.40S WCI   3
MOBRIDGE       CLEAR     13   8  81 NE5       30.35R WCI   5
BUFFALO          N/A     18   9  68 SE5       30.20S WCI  11
RAPID CITY     CLEAR      8   4  83 CALM      30.31S
GLASGOW        CLEAR     17   9  70 SE10      30.17F WCI   5
SIDNEY         CLEAR     16  10  79 S5        30.29F WCI   9
WOLF POINT     CLEAR     18   9  68 S3        30.23F
GLENDIVE       CLEAR     18   9  68 SE6       30.24F WCI   9
MILES CITY     CLEAR     18   8  65 SE7       30.21F WCI   9
BAKER          CLEAR      5   2  87 S5        30.25S WCI  -4
$$

CITY           SKY/WX    TMP DP  RH WIND       PRES   REMARKS
BILLINGS       PTCLDY    25   5  42 S9        30.09F WCI  15
GREAT FALLS    MOCLDY    30  10  43 S18       29.93F WCI  18
REGINA         CLEAR      7   3  85 SE8       30.20F WCI  -6
ESTEVAN        CLEAR      5   3  92 SW5       30.25F WCI  -4
$$



USA.gov is the U.S. government's official web portal to all federal, state and local government web resources and services.